Weather History for Newberry, MI

Change the Weather History Date:

Monday, February 10, 2014

  Actual Average Record
Temperature  
Mean Temperature 0 °F -  
Max Temperature 7 °F 24 °F 46 °F (2009)
Min Temperature -6 °F 8 °F -26 °F (1912)
Degree Days  
Heating Degree Days 65    
Moisture  
Dew Point -4 °F    
Average Humidity 79    
Maximum Humidity 91    
Minimum Humidity 60    
Precipitation  
Precipitation 0.00 in - - ()
Sea Level Pressure  
Sea Level Pressure 30.23 in    
Wind  
Wind Speed 6 mph (WNW)    
Max Wind Speed 10 mph    
Max Gust Speed 10 mph    
Visibility 9 miles    
Events Snow    
Averages and records for this station are not official NWS values.
T = Trace of Precipitation, MM = Missing Value Source: NWS Daily Summary

Daily Weather History Graph

Daily Weather History Graph

Search for Another Location

Airport:

Trip Planner

Search our weather history database for the weather conditions in past years. The results will help you decide how hot, cold, wet, or windy it might be!

Date:

Astronomy

Feb. 10, 2014 Rise Set
Actual Time 7:52 AM EST 6:00 PM EST
Civil Twilight 7:21 AM EST 6:31 PM EST
Nautical Twilight 6:45 AM EST 7:06 PM EST
Astronomical Twilight 6:11 AM EST 7:41 PM EST
Moon 2:22 PM EST (2/10) 4:51 AM EST (2/10)
Length of Visible Light 11h 10m
Length of Day
10h 07m
Waxing Gibbous, 84% of the Moon is Illuminated
Feb 10
Waxing Gibbous
Feb 14
Full
Feb 22
Last Quarter
Mar 1
New
Mar 8
First Quarter

Hourly Weather History & Observations

Time (EST) Temp. Windchill Dew Point Humidity Pressure Visibility Wind Dir Wind Speed Gust Speed Precip Events Conditions
12:14 AM 3.7 °F -5.5 °F -0.4 °F 83% 30.14 in 10.0 mi WNW 4.6 mph - N/A   Overcast
12:35 AM 2.8 °F -8.2 °F -1.3 °F 83% 30.14 in 10.0 mi WNW 5.8 mph - N/A   Mostly Cloudy
12:55 AM 2.8 °F -6.6 °F -0.8 °F 85% 30.14 in 10.0 mi West 4.6 mph - N/A   Overcast
1:14 AM 2.7 °F -10.9 °F -0.4 °F 87% 30.14 in 7.0 mi West 8.1 mph - N/A   Overcast
1:35 AM 2.3 °F -10.2 °F -0.8 °F 87% 30.14 in 10.0 mi West 6.9 mph - N/A   Overcast
1:55 AM 2.1 °F -9.0 °F -0.9 °F 87% 30.14 in 10.0 mi West 5.8 mph - N/A Snow Light Snow
2:14 AM 0.7 °F -13.3 °F -2.7 °F 86% 30.14 in 7.0 mi West 8.1 mph - N/A Snow Light Snow
2:35 AM 1.6 °F -11.0 °F -1.3 °F 88% 30.14 in 7.0 mi West 6.9 mph - N/A Snow Light Snow
2:55 AM -0.9 °F -12.7 °F -3.5 °F 89% 30.14 in 10.0 mi West 5.8 mph - N/A   Scattered Clouds
3:15 AM -0.8 °F -13.9 °F -3.1 °F 90% 30.14 in 10.0 mi WSW 6.9 mph - N/A   Clear
3:35 AM -1.7 °F -14.9 °F -4.0 °F 90% 30.15 in 10.0 mi West 6.9 mph - N/A   Scattered Clouds
3:54 AM -2.0 °F -12.2 °F -4.2 °F 91% 30.15 in 10.0 mi WSW 4.6 mph - N/A Snow Light Snow
4:15 AM -0.6 °F -13.6 °F -3.1 °F 89% 30.15 in 10.0 mi WSW 6.9 mph - N/A   Overcast
4:35 AM 0.3 °F -12.6 °F -2.4 °F 88% 30.15 in 10.0 mi WSW 6.9 mph - N/A   Overcast
4:54 AM 0.5 °F -12.3 °F -2.2 °F 88% 30.15 in 10.0 mi WSW 6.9 mph - N/A   Overcast
5:15 AM 0.9 °F -11.9 °F -2.4 °F 86% 30.15 in 10.0 mi WSW 6.9 mph - N/A   Overcast
5:35 AM 0.9 °F -13.1 °F -2.6 °F 86% 30.16 in 10.0 mi West 8.1 mph - N/A   Overcast
5:54 AM 0.1 °F -12.8 °F -3.3 °F 85% 30.16 in 10.0 mi WSW 6.9 mph - N/A   Overcast
6:15 AM -0.2 °F -11.8 °F -3.5 °F 86% 30.16 in 7.0 mi WSW 5.8 mph - N/A   Overcast
6:34 AM -0.4 °F -14.7 °F -3.6 °F 86% 30.16 in 10.0 mi West 8.1 mph - N/A   Overcast
6:55 AM -1.7 °F -14.9 °F -4.5 °F 88% 30.17 in 10.0 mi WSW 6.9 mph - N/A   Overcast
7:15 AM -3.3 °F -16.9 °F -6.0 °F 88% 30.17 in 10.0 mi West 6.9 mph - N/A   Mostly Cloudy
7:34 AM -4.4 °F -18.2 °F -6.5 °F 90% 30.18 in 10.0 mi West 6.9 mph - N/A   Scattered Clouds
7:55 AM -4.5 °F -20.8 °F -6.7 °F 90% 30.19 in 10.0 mi West 9.2 mph - N/A   Scattered Clouds
8:14 AM -4.2 °F -20.4 °F -6.7 °F 89% 30.19 in 7.0 mi West 9.2 mph - N/A   Mostly Cloudy
8:35 AM -3.8 °F -19.9 °F -6.3 °F 89% 30.20 in 10.0 mi West 9.2 mph - N/A   Scattered Clouds
8:54 AM -1.3 °F -14.5 °F -4.4 °F 87% 30.21 in 5.0 mi West 6.9 mph - N/A   Mostly Cloudy
9:15 AM 0.5 °F -9.3 °F -3.5 °F 83% 30.22 in 10.0 mi WNW 4.6 mph - N/A   Overcast
9:34 AM 1.9 °F -7.6 °F -2.7 °F 81% 30.22 in 7.0 mi WNW 4.6 mph - N/A   Overcast
9:55 AM 3.9 °F -8.2 °F -2.6 °F 74% 30.22 in 10.0 mi NW 6.9 mph - N/A   Mostly Cloudy
10:15 AM 4.8 °F -8.3 °F -3.1 °F 70% 30.22 in 10.0 mi West 8.1 mph - N/A   Mostly Cloudy
10:34 AM 4.8 °F -5.8 °F -4.5 °F 65% 30.23 in 10.0 mi WNW 5.8 mph - N/A   Overcast
10:55 AM 5.7 °F -9.1 °F -5.4 °F 60% 30.23 in 10.0 mi WNW 10.4 mph - N/A   Overcast
11:15 AM 6.3 °F -8.4 °F -4.2 °F 62% 30.23 in 10.0 mi NW 10.4 mph - N/A   Overcast
11:35 AM 5.5 °F -6.3 °F -4.4 °F 64% 30.24 in 10.0 mi NW 6.9 mph - N/A   Overcast
11:55 AM 5.5 °F -6.3 °F -4.5 °F 63% 30.24 in 10.0 mi NW 6.9 mph - N/A   Overcast
12:14 PM 5.9 °F -5.8 °F -0.6 °F 75% 30.24 in 2.0 mi NW 6.9 mph - N/A Snow Light Snow
12:35 PM 5.5 °F -6.3 °F -1.3 °F 73% 30.24 in 1.5 mi NW 6.9 mph 10.4 mph N/A Snow Light Snow
12:55 PM 6.3 °F -6.5 °F -3.5 °F 64% 30.24 in 5.0 mi WNW 8.1 mph - N/A   Haze
1:14 PM 5.9 °F -7.0 °F -3.5 °F 65% 30.23 in 10.0 mi WNW 8.1 mph - N/A   Overcast
1:35 PM 5.9 °F -8.0 °F -3.3 °F 66% 30.23 in 5.0 mi WNW 9.2 mph - N/A   Haze
1:55 PM 5.7 °F -6.1 °F -4.0 °F 64% 30.23 in 10.0 mi NW 6.9 mph - N/A   Overcast
2:14 PM 5.9 °F -7.0 °F -4.4 °F 63% 30.23 in 10.0 mi WNW 8.1 mph - N/A   Overcast
2:35 PM 5.7 °F -7.2 °F -5.1 °F 61% 30.23 in 10.0 mi NNW 8.1 mph - N/A   Overcast
2:55 PM 5.9 °F -8.9 °F -3.5 °F 65% 30.23 in 7.0 mi WNW 10.4 mph - N/A   Overcast
3:15 PM 5.7 °F -6.1 °F -2.7 °F 68% 30.23 in 7.0 mi NNW 6.9 mph - N/A   Overcast
3:35 PM 5.0 °F -6.9 °F -4.5 °F 65% 30.24 in 5.0 mi WNW 6.9 mph - N/A   Haze
3:54 PM 5.0 °F -6.9 °F -5.6 °F 62% 30.24 in 10.0 mi WNW 6.9 mph - N/A   Overcast
4:15 PM 5.0 °F -9.1 °F -4.2 °F 66% 30.25 in 10.0 mi NNW 9.2 mph - N/A   Overcast
4:35 PM 5.0 °F -9.1 °F -4.4 °F 65% 30.26 in 7.0 mi NW 9.2 mph - N/A   Overcast
4:54 PM 4.6 °F -6.0 °F -4.5 °F 66% 30.27 in 10.0 mi NW 5.8 mph - N/A   Overcast
5:15 PM 4.1 °F -6.7 °F -4.2 °F 69% 30.27 in 10.0 mi NW 5.8 mph - N/A   Overcast
5:35 PM 3.7 °F -7.1 °F -3.5 °F 72% 30.28 in 5.0 mi NW 5.8 mph - N/A   Haze
5:54 PM 3.2 °F -7.8 °F -3.3 °F 74% 30.29 in 5.0 mi NNW 5.8 mph - N/A   Haze
6:15 PM 3.2 °F -4.2 °F -2.2 °F 78% 30.30 in 2.5 mi NW 3.5 mph - N/A Snow Light Snow
6:34 PM 2.3 °F -5.2 °F -3.3 °F 77% 30.31 in 10.0 mi WNW 3.5 mph - N/A   Overcast
6:55 PM 2.1 °F -10.4 °F -5.4 °F 71% 30.31 in 10.0 mi WNW 6.9 mph - N/A   Overcast
7:14 PM 1.4 °F -8.3 °F -5.1 °F 74% 30.32 in 10.0 mi WNW 4.6 mph - N/A   Overcast
7:35 PM -1.3 °F -9.3 °F -6.5 °F 79% 30.32 in 10.0 mi West 3.5 mph - N/A   Scattered Clouds
7:54 PM -3.8 °F -14.4 °F -8.1 °F 82% 30.32 in 10.0 mi West 4.6 mph - N/A   Scattered Clouds
8:15 PM -3.3 °F -13.7 °F -6.7 °F 85% 30.32 in 10.0 mi West 4.6 mph - N/A   Scattered Clouds
8:35 PM -6.0 °F -16.9 °F -8.9 °F 87% 30.32 in 10.0 mi West 4.6 mph - N/A   Scattered Clouds
8:54 PM -5.4 °F -16.2 °F -8.0 °F 89% 30.33 in 10.0 mi West 4.6 mph - N/A   Mostly Cloudy
9:15 PM -4.0 °F -16.3 °F -6.7 °F 88% 30.33 in 10.0 mi West 5.8 mph - N/A   Overcast
9:34 PM -4.0 °F -14.6 °F -7.4 °F 85% 30.34 in 7.0 mi West 4.6 mph - N/A   Overcast
9:55 PM -3.8 °F -12.2 °F -6.0 °F 90% 30.34 in 10.0 mi West 3.5 mph - N/A   Mostly Cloudy
10:15 PM -4.5 °F -13.0 °F -6.9 °F 90% 30.35 in 10.0 mi West 3.5 mph - N/A   Scattered Clouds
10:34 PM -4.2 °F -14.8 °F -6.7 °F 89% 30.35 in 10.0 mi West 4.6 mph - N/A   Overcast
10:55 PM -4.0 °F -14.6 °F -7.2 °F 86% 30.35 in 10.0 mi WNW 4.6 mph - N/A   Overcast
11:14 PM -2.2 °F -14.2 °F -6.7 °F 81% 30.35 in 10.0 mi WNW 5.8 mph - N/A   Overcast
11:35 PM -1.3 °F -11.4 °F -6.2 °F 80% 30.35 in 10.0 mi West 4.6 mph - N/A   Overcast
11:54 PM -2.2 °F -14.2 °F -6.5 °F 82% 30.35 in 10.0 mi West 5.8 mph - N/A   Overcast